GLO9954 SBBE-SBFZ

Flight info

Callsign GLO9954
Flight time 1h 34m
Altitude FL350
Route ITAKI UZ81 CROMO
Aircraft B738/M-S/N

Departure

Time 2026-05-04 23:08
Airport Val de Cans/Júlio Cezar Ribeiro International Airport (SBBE)

Arrival

Time 2026-05-05 00:43
Airport Pinto Martins International Airport (SBFZ)
Time Latitude Longitude Altitude Speed Heading
2026-05-04 23:00 -1.38993 -48.47901 62 ft 0 kts 274°
2026-05-04 23:02 -1.38993 -48.47900 62 ft 1 kts 274°
2026-05-04 23:02 -1.38994 -48.47887 62 ft 3 kts 274°
2026-05-04 23:02 -1.38995 -48.47868 62 ft 3 kts 274°
2026-05-04 23:03 -1.38995 -48.47850 62 ft 0 kts 253°
2026-05-04 23:03 -1.38995 -48.47846 62 ft 2 kts 283°
2026-05-04 23:03 -1.39003 -48.47832 62 ft 3 kts 327°
2026-05-04 23:03 -1.39010 -48.47829 62 ft 0 kts 343°
2026-05-04 23:04 -1.39006 -48.47829 62 ft 1 kts 352°
2026-05-04 23:04 -1.38987 -48.47830 62 ft 5 kts 359°
2026-05-04 23:04 -1.38946 -48.47826 62 ft 8 kts
2026-05-04 23:04 -1.38877 -48.47820 62 ft 11 kts
2026-05-04 23:05 -1.38786 -48.47811 62 ft 15 kts
2026-05-04 23:05 -1.38690 -48.47802 62 ft 12 kts
2026-05-04 23:05 -1.38676 -48.47753 62 ft 9 kts 145°
2026-05-04 23:05 -1.38700 -48.47756 62 ft 2 kts 227°
2026-05-04 23:06 -1.38693 -48.47788 62 ft 9 kts 305°
2026-05-04 23:06 -1.38663 -48.47874 62 ft 15 kts 266°
2026-05-04 23:06 -1.38668 -48.47979 62 ft 16 kts 267°
2026-05-04 23:06 -1.38674 -48.48086 62 ft 16 kts 267°
2026-05-04 23:07 -1.38681 -48.48204 62 ft 15 kts 264°
2026-05-04 23:07 -1.38739 -48.48295 62 ft 17 kts 225°
2026-05-04 23:07 -1.38815 -48.48387 62 ft 15 kts 274°
2026-05-04 23:07 -1.38788 -48.48474 62 ft 10 kts 340°
2026-05-04 23:08 -1.38745 -48.48440 62 ft 9 kts 47°
2026-05-04 23:08 -1.38591 -48.48283 62 ft 71 kts 45°
2026-05-04 23:08 -1.38043 -48.47727 63 ft 148 kts 45°
2026-05-04 23:08 -1.37292 -48.46961 734 ft 154 kts 46°
2026-05-04 23:09 -1.36503 -48.46115 1447 ft 186 kts 49°
2026-05-04 23:09 -1.35816 -48.44886 2080 ft 221 kts 74°
2026-05-04 23:09 -1.35819 -48.43715 2716 ft 230 kts 102°
2026-05-04 23:09 -1.36523 -48.42130 3975 ft 235 kts 118°
2026-05-04 23:10 -1.37161 -48.40614 5036 ft 243 kts 102°
2026-05-04 23:10 -1.37053 -48.38966 6189 ft 243 kts 77°
2026-05-04 23:10 -1.36634 -48.37354 7255 ft 249 kts 77°
2026-05-04 23:10 -1.36408 -48.35591 8349 ft 253 kts 86°
2026-05-04 23:11 -1.36460 -48.33793 9395 ft 259 kts 98°
2026-05-04 23:11 -1.36930 -48.32042 10330 ft 269 kts 108°
2026-05-04 23:11 -1.37390 -48.30700 10434 ft 299 kts 109°
2026-05-04 23:11 -1.38106 -48.28672 11103 ft 315 kts 109°
2026-05-04 23:12 -1.38598 -48.27280 11733 ft 319 kts 109°
2026-05-04 23:12 -1.39307 -48.25273 12713 ft 324 kts 109°
2026-05-04 23:12 -1.40068 -48.23117 13682 ft 329 kts 109°
2026-05-04 23:12 -1.40724 -48.21258 14498 ft 333 kts 109°
2026-05-04 23:13 -1.41461 -48.19168 15367 ft 338 kts 109°
2026-05-04 23:13 -1.42089 -48.17385 16116 ft 341 kts 109°
2026-05-04 23:13 -1.42901 -48.15078 16987 ft 346 kts 109°
2026-05-04 23:13 -1.43684 -48.12855 18171 ft 337 kts 109°
2026-05-04 23:14 -1.44473 -48.10613 18666 ft 351 kts 109°
2026-05-04 23:14 -1.45288 -48.08295 19288 ft 356 kts 109°
2026-05-04 23:14 -1.46109 -48.05957 19968 ft 361 kts 110°
2026-05-04 23:14 -1.46942 -48.03587 20602 ft 365 kts 110°
2026-05-04 23:15 -1.47788 -48.01176 21209 ft 370 kts 110°
2026-05-04 23:15 -1.48642 -47.98743 21797 ft 374 kts 110°
2026-05-04 23:15 -1.49505 -47.96282 22358 ft 379 kts 110°
2026-05-04 23:15 -1.50372 -47.93810 22896 ft 383 kts 110°
2026-05-04 23:16 -1.51261 -47.91271 23416 ft 387 kts 110°
2026-05-04 23:16 -1.52151 -47.88731 23915 ft 391 kts 110°
2026-05-04 23:16 -1.52946 -47.86456 24326 ft 396 kts 111°
2026-05-04 23:16 -1.53798 -47.84019 24713 ft 400 kts 111°
2026-05-04 23:17 -1.54406 -47.82278 25066 ft 401 kts 111°
2026-05-04 23:17 -1.55376 -47.79505 25441 ft 408 kts 111°
2026-05-04 23:17 -1.56312 -47.76823 25937 ft 410 kts 111°
2026-05-04 23:17 -1.57253 -47.74130 26351 ft 414 kts 111°
2026-05-04 23:18 -1.58199 -47.71414 26828 ft 415 kts 111°
2026-05-04 23:18 -1.59142 -47.68709 27377 ft 414 kts 111°
2026-05-04 23:18 -1.60090 -47.65989 27918 ft 414 kts 110°
2026-05-04 23:18 -1.61029 -47.63290 28452 ft 414 kts 110°
2026-05-04 23:19 -1.61979 -47.60561 28983 ft 414 kts 110°
2026-05-04 23:19 -1.62924 -47.57845 29474 ft 415 kts 110°
2026-05-04 23:19 -1.63870 -47.55143 30012 ft 414 kts 111°
2026-05-04 23:19 -1.64826 -47.52439 30547 ft 414 kts 111°
2026-05-04 23:20 -1.65787 -47.49742 31081 ft 413 kts 111°
2026-05-04 23:20 -1.66766 -47.47044 31608 ft 413 kts 111°
2026-05-04 23:20 -1.67733 -47.44366 32123 ft 412 kts 111°
2026-05-04 23:20 -1.68700 -47.41671 32641 ft 412 kts 110°
2026-05-04 23:21 -1.69568 -47.38955 33152 ft 412 kts 108°
2026-05-04 23:21 -1.70369 -47.36214 33660 ft 411 kts 107°
2026-05-04 23:21 -1.71156 -47.33472 34154 ft 410 kts 107°
2026-05-04 23:21 -1.71944 -47.30740 34677 ft 408 kts 107°
2026-05-04 23:22 -1.72734 -47.27994 34912 ft 416 kts 107°
2026-05-04 23:22 -1.73538 -47.25196 34980 ft 426 kts 107°
2026-05-04 23:22 -1.75184 -47.19395 34990 ft 445 kts 107°
2026-05-04 23:23 -1.76920 -47.13335 34989 ft 461 kts 107°
2026-05-04 23:23 -1.78679 -47.07114 34988 ft 471 kts 107°
2026-05-04 23:24 -1.80493 -47.00769 34989 ft 480 kts 107°
2026-05-04 23:24 -1.82335 -46.94311 34988 ft 487 kts 107°
2026-05-04 23:25 -1.84192 -46.87791 34988 ft 490 kts 107°
2026-05-04 23:25 -1.86042 -46.81286 34988 ft 488 kts 107°
2026-05-04 23:26 -1.87898 -46.74744 34988 ft 489 kts 107°
2026-05-04 23:26 -1.89740 -46.68243 34984 ft 487 kts 107°
2026-05-04 23:27 -1.91576 -46.61753 34984 ft 487 kts 107°
2026-05-04 23:27 -1.93407 -46.55270 34984 ft 487 kts 107°
2026-05-04 23:28 -1.95249 -46.48740 34984 ft 487 kts 107°
2026-05-04 23:28 -1.97078 -46.42255 34979 ft 484 kts 107°
2026-05-04 23:29 -1.98467 -46.37307 34982 ft 480 kts 107°
2026-05-04 23:29 -2.00319 -46.30703 34981 ft 481 kts 107°
2026-05-04 23:30 -2.02132 -46.24295 34981 ft 481 kts 107°
2026-05-04 23:30 -2.03953 -46.17877 34981 ft 480 kts 107°
2026-05-04 23:31 -2.05774 -46.11468 34982 ft 480 kts 107°
2026-05-04 23:31 -2.07588 -46.05074 34983 ft 480 kts 107°
2026-05-04 23:32 -2.09399 -45.98696 34982 ft 480 kts 107°
2026-05-04 23:32 -2.11222 -45.92278 34982 ft 480 kts 107°
2026-05-04 23:33 -2.13049 -45.85844 34982 ft 483 kts 107°
2026-05-04 23:33 -2.14881 -45.79394 34982 ft 484 kts 107°
2026-05-04 23:34 -2.16711 -45.72945 34983 ft 483 kts 107°
2026-05-04 23:34 -2.18543 -45.66500 34982 ft 483 kts 107°
2026-05-04 23:35 -2.20377 -45.60044 34979 ft 482 kts 107°
2026-05-04 23:35 -2.22203 -45.53626 34979 ft 482 kts 107°
2026-05-04 23:36 -2.24045 -45.47190 34978 ft 482 kts 108°
2026-05-04 23:36 -2.25882 -45.40763 34979 ft 482 kts 107°
2026-05-04 23:37 -2.27684 -45.34329 34978 ft 482 kts 107°
2026-05-04 23:37 -2.29537 -45.27902 34979 ft 482 kts 107°
2026-05-04 23:38 -2.31363 -45.21464 34979 ft 482 kts 107°
2026-05-04 23:38 -2.33187 -45.15019 34979 ft 482 kts 107°
2026-05-04 23:39 -2.34939 -45.08820 34981 ft 484 kts 107°
2026-05-04 23:39 -2.36776 -45.02318 34980 ft 490 kts 107°
2026-05-04 23:40 -2.38627 -44.95765 34980 ft 489 kts 107°
2026-05-04 23:40 -2.40467 -44.89243 34981 ft 489 kts 106°
2026-05-04 23:41 -2.42322 -44.82716 34981 ft 489 kts 107°
2026-05-04 23:41 -2.44175 -44.76208 34985 ft 485 kts 107°
2026-05-04 23:42 -2.45995 -44.69775 34986 ft 482 kts 107°
2026-05-04 23:42 -2.47824 -44.63308 34986 ft 483 kts 107°
2026-05-04 23:43 -2.49644 -44.56867 34986 ft 483 kts 107°
2026-05-04 23:43 -2.51465 -44.50422 34984 ft 481 kts 107°
2026-05-04 23:44 -2.53301 -44.44026 34982 ft 479 kts 107°
2026-05-04 23:44 -2.55128 -44.37650 34982 ft 480 kts 107°
2026-05-04 23:45 -2.56931 -44.31223 34983 ft 480 kts 107°
2026-05-04 23:45 -2.58695 -44.24790 34982 ft 481 kts 105°
2026-05-04 23:46 -2.60137 -44.18321 34977 ft 478 kts 103°
2026-05-04 23:46 -2.61513 -44.11819 34977 ft 478 kts 103°
2026-05-04 23:47 -2.62893 -44.05299 34977 ft 479 kts 103°
2026-05-04 23:47 -2.63576 -44.02064 34977 ft 479 kts 103°
2026-05-04 23:48 -2.65613 -43.92302 34977 ft 481 kts 102°
2026-05-04 23:48 -2.66938 -43.85752 34976 ft 483 kts 103°
2026-05-04 23:49 -2.68315 -43.79206 34977 ft 482 kts 103°
2026-05-04 23:49 -2.69689 -43.72661 34977 ft 482 kts 103°
2026-05-04 23:50 -2.71063 -43.66121 34976 ft 482 kts 103°
2026-05-04 23:50 -2.72472 -43.59603 34979 ft 481 kts 104°
2026-05-04 23:51 -2.73884 -43.53075 34979 ft 481 kts 103°
2026-05-04 23:51 -2.75250 -43.46544 34978 ft 481 kts 103°
2026-05-04 23:52 -2.76613 -43.39998 34979 ft 481 kts 103°
2026-05-04 23:52 -2.77972 -43.33457 34978 ft 483 kts 103°
2026-05-04 23:53 -2.79333 -43.26896 34979 ft 483 kts 103°
2026-05-04 23:53 -2.80698 -43.20329 34979 ft 483 kts 103°
2026-05-04 23:54 -2.82077 -43.13773 34979 ft 483 kts 103°
2026-05-04 23:54 -2.83453 -43.07252 34978 ft 482 kts 103°
2026-05-04 23:55 -2.84834 -43.00700 34977 ft 480 kts 103°
2026-05-04 23:56 -2.86896 -42.90909 34977 ft 481 kts 103°
2026-05-04 23:56 -2.88270 -42.84386 34977 ft 481 kts 103°
2026-05-04 23:57 -2.89648 -42.77855 34975 ft 478 kts 103°
2026-05-04 23:57 -2.91012 -42.71387 34975 ft 477 kts 103°
2026-05-04 23:58 -2.92381 -42.64903 34975 ft 477 kts 103°
2026-05-04 23:58 -2.93631 -42.58976 34975 ft 477 kts 103°
2026-05-04 23:59 -2.94920 -42.52874 34983 ft 475 kts 103°
2026-05-04 23:59 -2.95993 -42.47826 34984 ft 475 kts 104°
2026-05-05 00:00 -2.97506 -42.40940 34984 ft 475 kts 104°
2026-05-05 00:00 -2.98864 -42.34473 34984 ft 475 kts 103°
2026-05-05 00:01 -3.00205 -42.28080 34983 ft 475 kts 103°
2026-05-05 00:01 -3.01566 -42.21595 34981 ft 475 kts 104°
2026-05-05 00:02 -3.02717 -42.16134 34981 ft 476 kts 103°
2026-05-05 00:02 -3.04012 -42.09718 34980 ft 476 kts 103°
2026-05-05 00:03 -3.05333 -42.03121 34981 ft 476 kts 103°
2026-05-05 00:03 -3.06642 -41.96620 34982 ft 475 kts 103°
2026-05-05 00:04 -3.07968 -41.90146 34979 ft 477 kts 103°
2026-05-05 00:04 -3.09284 -41.83761 34979 ft 476 kts 103°
2026-05-05 00:05 -3.09819 -41.81163 34979 ft 476 kts 103°
2026-05-05 00:05 -3.10436 -41.78246 34979 ft 476 kts 103°
2026-05-05 00:06 -3.11768 -41.71784 34979 ft 476 kts 103°
2026-05-05 00:06 -3.13108 -41.65323 34977 ft 475 kts 103°
2026-05-05 00:07 -3.14445 -41.58867 34977 ft 476 kts 103°
2026-05-05 00:07 -3.15785 -41.52407 34977 ft 475 kts 103°
2026-05-05 00:08 -3.17142 -41.45941 34977 ft 475 kts 104°
2026-05-05 00:08 -3.18489 -41.39489 34977 ft 475 kts 103°
2026-05-05 00:09 -3.19608 -41.34079 34973 ft 476 kts 103°
2026-05-05 00:09 -3.21165 -41.26544 34973 ft 476 kts 103°
2026-05-05 00:10 -3.22501 -41.20078 34973 ft 477 kts 103°
2026-05-05 00:10 -3.23842 -41.13583 34973 ft 476 kts 103°
2026-05-05 00:11 -3.25178 -41.07112 34976 ft 476 kts 103°
2026-05-05 00:11 -3.26443 -41.00979 34980 ft 476 kts 103°
2026-05-05 00:12 -3.27727 -40.94753 34981 ft 476 kts 103°
2026-05-05 00:12 -3.29033 -40.88364 34981 ft 476 kts 103°
2026-05-05 00:13 -3.30388 -40.81850 34982 ft 476 kts 103°
2026-05-05 00:13 -3.31717 -40.75391 34983 ft 476 kts 103°
2026-05-05 00:14 -3.33051 -40.68911 34982 ft 476 kts 103°
2026-05-05 00:14 -3.34383 -40.62440 34983 ft 476 kts 103°
2026-05-05 00:15 -3.35651 -40.56281 34980 ft 454 kts 103°
2026-05-05 00:15 -3.36249 -40.53391 34843 ft 439 kts 103°
2026-05-05 00:15 -3.36857 -40.50373 34149 ft 437 kts 103°
2026-05-05 00:15 -3.37344 -40.48042 33616 ft 436 kts 103°
2026-05-05 00:16 -3.37956 -40.45106 33125 ft 430 kts 103°
2026-05-05 00:16 -3.38557 -40.42181 32531 ft 426 kts 102°
2026-05-05 00:16 -3.39146 -40.39299 31957 ft 423 kts 102°
2026-05-05 00:16 -3.39625 -40.36947 31518 ft 420 kts 102°
2026-05-05 00:17 -3.40196 -40.34138 31003 ft 416 kts 102°
2026-05-05 00:17 -3.40775 -40.31290 30489 ft 412 kts 102°
2026-05-05 00:17 -3.41343 -40.28489 30023 ft 408 kts 102°
2026-05-05 00:17 -3.41897 -40.25758 29583 ft 404 kts 102°
2026-05-05 00:18 -3.42455 -40.23003 29148 ft 400 kts 102°
2026-05-05 00:18 -3.43002 -40.20314 28717 ft 396 kts 102°
2026-05-05 00:18 -3.43552 -40.17614 28285 ft 393 kts 102°
2026-05-05 00:18 -3.44080 -40.14954 27856 ft 390 kts 102°
2026-05-05 00:19 -3.44579 -40.12313 27406 ft 385 kts 99°
2026-05-05 00:19 -3.44926 -40.09671 26753 ft 381 kts 97°
2026-05-05 00:19 -3.45236 -40.07068 26094 ft 377 kts 97°
2026-05-05 00:19 -3.45586 -40.04485 25480 ft 373 kts 98°
2026-05-05 00:20 -3.45963 -40.01940 24851 ft 369 kts 99°
2026-05-05 00:20 -3.46439 -39.99420 24246 ft 364 kts 101°
2026-05-05 00:20 -3.46948 -39.96969 23639 ft 360 kts 101°
2026-05-05 00:20 -3.47459 -39.94540 23047 ft 356 kts 101°
2026-05-05 00:21 -3.47964 -39.92134 22462 ft 352 kts 101°
2026-05-05 00:21 -3.48462 -39.89759 21876 ft 348 kts 101°
2026-05-05 00:21 -3.48956 -39.87404 21296 ft 344 kts 101°
2026-05-05 00:21 -3.49443 -39.85081 20720 ft 340 kts 101°
2026-05-05 00:22 -3.49924 -39.82782 20150 ft 336 kts 101°
2026-05-05 00:22 -3.50403 -39.80506 19582 ft 332 kts 101°
2026-05-05 00:22 -3.50875 -39.78259 19044 ft 328 kts 102°
2026-05-05 00:22 -3.51358 -39.76045 18470 ft 325 kts 102°
2026-05-05 00:23 -3.51821 -39.73852 17916 ft 321 kts 101°
2026-05-05 00:23 -3.52276 -39.71693 17336 ft 319 kts 102°
2026-05-05 00:23 -3.52585 -39.70282 16974 ft 317 kts 102°
2026-05-05 00:23 -3.53196 -39.67400 16258 ft 312 kts 102°
2026-05-05 00:24 -3.53643 -39.65290 15718 ft 309 kts 102°
2026-05-05 00:24 -3.54097 -39.63193 15181 ft 306 kts 102°
2026-05-05 00:24 -3.54530 -39.61120 14652 ft 303 kts 101°
2026-05-05 00:24 -3.54972 -39.59069 14042 ft 304 kts 104°
2026-05-05 00:25 -3.55411 -39.57018 13533 ft 301 kts 103°
2026-05-05 00:25 -3.55839 -39.54983 13034 ft 297 kts 103°
2026-05-05 00:25 -3.56271 -39.52972 12523 ft 295 kts 103°
2026-05-05 00:25 -3.56693 -39.50980 12018 ft 292 kts 103°
2026-05-05 00:26 -3.57119 -39.49002 11520 ft 290 kts 103°
2026-05-05 00:26 -3.57554 -39.47063 11116 ft 285 kts 103°
2026-05-05 00:26 -3.57988 -39.45152 10993 ft 281 kts 103°
2026-05-05 00:26 -3.58418 -39.43225 10999 ft 288 kts 103°
2026-05-05 00:27 -3.58845 -39.41259 10998 ft 288 kts 103°
2026-05-05 00:27 -3.59261 -39.39313 10999 ft 288 kts 103°
2026-05-05 00:27 -3.59678 -39.37357 10999 ft 288 kts 103°
2026-05-05 00:27 -3.60093 -39.35401 10998 ft 288 kts 103°
2026-05-05 00:28 -3.60508 -39.33453 10999 ft 288 kts 103°
2026-05-05 00:28 -3.60924 -39.31502 10999 ft 288 kts 103°
2026-05-05 00:28 -3.61326 -39.29609 10999 ft 288 kts 103°
2026-05-05 00:28 -3.61740 -39.27661 10999 ft 288 kts 103°
2026-05-05 00:29 -3.62158 -39.25697 10997 ft 285 kts 103°
2026-05-05 00:29 -3.62559 -39.23801 10994 ft 268 kts 103°
2026-05-05 00:29 -3.62879 -39.22284 10903 ft 257 kts 103°
2026-05-05 00:29 -3.63308 -39.20307 10575 ft 251 kts 103°
2026-05-05 00:30 -3.63630 -39.18593 10218 ft 252 kts 103°
2026-05-05 00:30 -3.63924 -39.16863 9867 ft 252 kts 103°
2026-05-05 00:30 -3.64230 -39.15155 9520 ft 251 kts 104°
2026-05-05 00:30 -3.64535 -39.13440 9170 ft 251 kts 103°
2026-05-05 00:31 -3.64834 -39.11724 8820 ft 250 kts 103°
2026-05-05 00:31 -3.65146 -39.10010 8468 ft 249 kts 103°
2026-05-05 00:31 -3.65440 -39.08306 8117 ft 249 kts 103°
2026-05-05 00:31 -3.65745 -39.06614 7768 ft 248 kts 103°
2026-05-05 00:32 -3.66044 -39.04919 7416 ft 247 kts 102°
2026-05-05 00:32 -3.66341 -39.03236 7066 ft 246 kts 103°
2026-05-05 00:32 -3.66639 -39.01564 6717 ft 245 kts 102°
2026-05-05 00:32 -3.66935 -38.99889 6366 ft 244 kts 103°
2026-05-05 00:33 -3.67231 -38.98220 6015 ft 243 kts 102°
2026-05-05 00:33 -3.67524 -38.96565 5666 ft 242 kts 102°
2026-05-05 00:33 -3.67817 -38.94904 5314 ft 241 kts 102°
2026-05-05 00:33 -3.68111 -38.93259 4964 ft 241 kts 102°
2026-05-05 00:34 -3.68399 -38.91617 4613 ft 240 kts 102°
2026-05-05 00:34 -3.68690 -38.89982 4262 ft 239 kts 102°
2026-05-05 00:34 -3.68978 -38.88355 3915 ft 238 kts 102°
2026-05-05 00:34 -3.69224 -38.86959 3631 ft 234 kts 101°
2026-05-05 00:35 -3.69414 -38.85897 3401 ft 234 kts 100°
2026-05-05 00:35 -3.69625 -38.84698 3123 ft 234 kts 100°
2026-05-05 00:35 -3.69920 -38.83010 2737 ft 233 kts 100°
2026-05-05 00:35 -3.70214 -38.81393 2379 ft 231 kts 100°
2026-05-05 00:36 -3.70526 -38.79810 2044 ft 235 kts 102°
2026-05-05 00:36 -3.70912 -38.78225 1777 ft 236 kts 104°
2026-05-05 00:36 -3.71316 -38.76666 1701 ft 227 kts 104°
2026-05-05 00:36 -3.71712 -38.75169 1695 ft 216 kts 105°
2026-05-05 00:37 -3.72082 -38.73756 1695 ft 205 kts 104°
2026-05-05 00:37 -3.72369 -38.72652 1713 ft 192 kts 104°
2026-05-05 00:37 -3.72659 -38.71511 1683 ft 174 kts 104°
2026-05-05 00:37 -3.72929 -38.70405 1670 ft 153 kts 104°
2026-05-05 00:38 -3.73172 -38.69467 1696 ft 128 kts 105°
2026-05-05 00:38 -3.73398 -38.68646 1702 ft 122 kts 105°
2026-05-05 00:38 -3.73629 -38.67820 1705 ft 123 kts 105°
2026-05-05 00:38 -3.73856 -38.67007 1700 ft 123 kts 105°
2026-05-05 00:39 -3.74089 -38.66173 1702 ft 123 kts 105°
2026-05-05 00:39 -3.74319 -38.65351 1701 ft 123 kts 105°
2026-05-05 00:39 -3.74549 -38.64529 1700 ft 123 kts 105°
2026-05-05 00:39 -3.74779 -38.63704 1701 ft 123 kts 105°
2026-05-05 00:40 -3.75004 -38.62881 1702 ft 123 kts 105°
2026-05-05 00:40 -3.75221 -38.62058 1650 ft 124 kts 105°
2026-05-05 00:40 -3.75446 -38.61240 1484 ft 123 kts 105°
2026-05-05 00:40 -3.75667 -38.60439 1329 ft 117 kts 107°
2026-05-05 00:41 -3.75892 -38.59662 1154 ft 113 kts 109°
2026-05-05 00:41 -3.76117 -38.58908 1011 ft 115 kts 108°
2026-05-05 00:41 -3.76332 -38.58141 862 ft 115 kts 107°
2026-05-05 00:41 -3.76535 -38.57374 711 ft 114 kts 107°
2026-05-05 00:42 -3.76735 -38.56610 560 ft 115 kts 107°
2026-05-05 00:42 -3.76936 -38.55840 410 ft 114 kts 107°
2026-05-05 00:42 -3.77145 -38.55066 256 ft 114 kts 107°
2026-05-05 00:42 -3.77356 -38.54303 111 ft 113 kts 107°
2026-05-05 00:43 -3.77549 -38.53610 90 ft 80 kts 103°
2026-05-05 00:43 -3.77638 -38.53271 90 ft 23 kts 106°
2026-05-05 00:43 -3.77671 -38.53144 90 ft 19 kts 104°
2026-05-05 00:43 -3.77707 -38.53007 90 ft 22 kts 105°
2026-05-05 00:44 -3.77749 -38.52858 90 ft 20 kts 106°
2026-05-05 00:44 -3.77776 -38.52766 90 ft 6 kts 106°
2026-05-05 00:44 -3.77788 -38.52742 90 ft 3 kts 130°
2026-05-05 00:44 -3.77803 -38.52738 90 ft 2 kts 183°
2026-05-05 00:45 -3.77814 -38.52746 90 ft 3 kts 233°
2026-05-05 00:45 -3.77828 -38.52766 90 ft 4 kts 236°
2026-05-05 00:45 -3.77845 -38.52796 90 ft 6 kts 250°
2026-05-05 00:45 -3.77845 -38.52837 90 ft 6 kts 282°
2026-05-05 00:46 -3.77834 -38.52885 90 ft 8 kts 284°
2026-05-05 00:46 -3.77817 -38.52944 90 ft 10 kts 287°
2026-05-05 00:46 -3.77797 -38.53014 90 ft 11 kts 287°
2026-05-05 00:46 -3.77776 -38.53090 90 ft 11 kts 284°
2026-05-05 00:47 -3.77756 -38.53167 90 ft 12 kts 284°
2026-05-05 00:47 -3.77733 -38.53256 90 ft 14 kts 285°
2026-05-05 00:47 -3.77710 -38.53341 90 ft 12 kts 285°
2026-05-05 00:47 -3.77695 -38.53397 90 ft 13 kts 285°
2026-05-05 00:48 -3.77670 -38.53490 90 ft 15 kts 284°
2026-05-05 00:48 -3.77644 -38.53593 90 ft 16 kts 284°
2026-05-05 00:48 -3.77618 -38.53692 90 ft 13 kts 285°
2026-05-05 00:48 -3.77595 -38.53775 90 ft 12 kts 285°
2026-05-05 00:49 -3.77592 -38.53851 90 ft 11 kts 249°
2026-05-05 00:49 -3.77641 -38.53899 90 ft 9 kts 199°
2026-05-05 00:49 -3.77699 -38.53916 90 ft 6 kts 218°
2026-05-05 00:49 -3.77711 -38.53945 90 ft 6 kts 257°
2026-05-05 00:50 -3.77716 -38.53967 90 ft 0 kts 258°